| time (UTC) | temp F | wind direction | speed MPH | gust MPH | rain 1hr in | rain 24hr in | rain mn in | humidity % | barometer mb |
| 20260507001412 | 60 | 37 | 1.0 | 4.0 | 0.00 | 0.00 | 0.00 | 50 | 1016.4 |
| 20260507000912 | 60 | 139 | 0.0 | 5.0 | 0.00 | 0.00 | 0.00 | 50 | 1016.3 |
| 20260507000412 | 61 | 69 | 2.0 | 5.0 | 0.00 | 0.00 | 0.00 | 48 | 1016.3 |
| 20260506235912 | 61 | 51 | 1.0 | 5.0 | 0.00 | 0.00 | 0.00 | 48 | 1016.3 |
| 20260506235412 | 62 | 3 | 3.0 | 5.0 | 0.00 | 0.00 | 0.00 | 46 | 1016.2 |
| 20260506234911 | 62 | 40 | 1.0 | 5.0 | 0.00 | 0.00 | 0.00 | 46 | 1016.2 |
| 20260506234415 | 62 | 83 | 1.0 | 4.0 | 0.00 | 0.00 | 0.00 | 45 | 1016.2 |
| 20260506233913 | 62 | 79 | 2.0 | 5.0 | 0.00 | 0.00 | 0.00 | 45 | 1016.0 |
| 20260506233411 | 62 | 66 | 3.0 | 9.0 | 0.00 | 0.00 | 0.00 | 45 | 1015.9 |
| 20260506232911 | 62 | 87 | 3.0 | 8.0 | 0.00 | 0.00 | 0.00 | 45 | 1015.9 |
| 20260506232412 | 62 | 58 | 3.0 | 9.0 | 0.00 | 0.00 | 0.00 | 45 | 1015.5 |
| 20260506231913 | 62 | 79 | 3.0 | 8.0 | 0.00 | 0.00 | 0.00 | 46 | 1015.5 |
| 20260506231412 | 62 | 122 | 4.0 | 9.0 | 0.00 | 0.00 | 0.00 | 46 | 1015.5 |
| 20260506230911 | 62 | 120 | 4.0 | 7.0 | 0.00 | 0.00 | 0.00 | 47 | 1015.4 |
| 20260506230414 | 62 | 27 | 3.0 | 7.0 | 0.00 | 0.00 | 0.00 | 47 | 1015.2 |
| 20260506225912 | 63 | 78 | 4.0 | 8.0 | 0.00 | 0.00 | 0.00 | 46 | 1015.2 |
| 20260506225411 | 62 | 42 | 4.0 | 10.0 | 0.00 | 0.00 | 0.00 | 46 | 1015.1 |
| 20260506224912 | 63 | 82 | 4.0 | 10.0 | 0.00 | 0.00 | 0.00 | 45 | 1015.1 |
| 20260506224411 | 63 | 92 | 3.0 | 9.0 | 0.00 | 0.00 | 0.00 | 45 | 1015.1 |
| 20260506223913 | 63 | 76 | 2.0 | 12.0 | 0.00 | 0.00 | 0.00 | 46 | 1015.1 |
| 20260506223412 | 63 | 71 | 4.0 | 12.0 | 0.00 | 0.00 | 0.00 | 45 | 1015.1 |
| 20260506222911 | 63 | 119 | 4.0 | 10.0 | 0.00 | 0.00 | 0.00 | 46 | 1015.0 |
| 20260506222414 | 62 | 62 | 2.0 | 7.0 | 0.00 | 0.00 | 0.00 | 46 | 1015.0 |
| 20260506221913 | 62 | 73 | 2.0 | 10.0 | 0.00 | 0.00 | 0.00 | 47 | 1015.2 |
| 20260506221412 | 62 | 139 | 4.0 | 10.0 | 0.00 | 0.00 | 0.00 | 48 | 1015.2 |
| 20260506220914 | 62 | 71 | 4.0 | 7.0 | 0.00 | 0.00 | 0.00 | 46 | 1015.3 |
| 20260506220413 | 62 | 91 | 4.0 | 9.0 | 0.00 | 0.00 | 0.00 | 47 | 1015.4 |
| 20260506215912 | 62 | 106 | 4.0 | 6.0 | 0.00 | 0.00 | 0.00 | 48 | 1015.3 |
| 20260506215411 | 62 | 121 | 1.0 | 5.0 | 0.00 | 0.00 | 0.00 | 49 | 1015.2 |
| 20260506214913 | 62 | 80 | 3.0 | 9.0 | 0.00 | 0.00 | 0.00 | 48 | 1015.2 |
| 20260506214412 | 62 | 66 | 2.0 | 8.0 | 0.00 | 0.00 | 0.00 | 48 | 1015.3 |
| 20260506213913 | 63 | 57 | 4.0 | 8.0 | 0.00 | 0.00 | 0.00 | 48 | 1015.4 |
| 20260506213413 | 63 | 54 | 4.0 | 9.0 | 0.00 | 0.00 | 0.00 | 47 | 1015.3 |
| 20260506204413 | 60 | 78 | 2.0 | 6.0 | 0.00 | 0.00 | 0.00 | 52 | 1016.1 |
| 20260506203911 | 60 | 118 | 4.0 | 9.0 | 0.00 | 0.00 | 0.00 | 54 | 1016.4 |
| 20260506203414 | 60 | 110 | 2.0 | 6.0 | 0.00 | 0.00 | 0.00 | 57 | 1016.3 |
| 20260506202912 | 61 | 103 | 3.0 | 8.0 | 0.00 | 0.00 | 0.00 | 56 | 1016.6 |
| 20260506202413 | 63 | 72 | 3.0 | 6.0 | 0.00 | 0.00 | 0.00 | 52 | 1016.6 |
| 20260506201913 | 63 | 67 | 2.0 | 4.0 | 0.00 | 0.00 | 0.00 | 50 | 1016.5 |
| 20260506200414 | 61 | 111 | 1.0 | 5.0 | 0.00 | 0.00 | 0.00 | 56 | 1016.5 |
| 20260506185413 | 65 | 28 | 5.0 | 10.0 | 0.00 | 0.00 | 0.00 | 49 | 1016.8 |
| 20260506184911 | 65 | 120 | 3.0 | 10.0 | 0.00 | 0.00 | 0.00 | 46 | 1016.8 |
| 20260506184414 | 65 | 50 | 5.0 | 9.0 | 0.00 | 0.00 | 0.00 | 45 | 1016.9 |
| 20260506183913 | 64 | 112 | 2.0 | 6.0 | 0.00 | 0.00 | 0.00 | 48 | 1017.0 |
| 20260506183413 | 64 | 40 | 4.0 | 6.0 | 0.00 | 0.00 | 0.00 | 46 | 1017.3 |
| 20260506164913 | 60 | 128 | 4.0 | 6.0 | 0.00 | 0.00 | 0.00 | 58 | 1018.0 |
| 20260506163913 | 61 | 117 | 2.0 | 8.0 | 0.00 | 0.00 | 0.00 | 51 | 1017.2 |
| 20260506163413 | 60 | 133 | 5.0 | 8.0 | 0.00 | 0.00 | 0.00 | 56 | 1017.3 |
| 20260506162912 | 59 | 80 | 4.0 | 8.0 | 0.00 | 0.00 | 0.00 | 55 | 1017.2 |
| 20260506162414 | 57 | 116 | 4.0 | 10.0 | 0.00 | 0.00 | 0.00 | 60 | 1017.1 |
| 20260506161413 | 55 | 151 | 5.0 | 11.0 | 0.00 | 0.00 | 0.00 | 64 | 1017.2 |
| 20260506160914 | 55 | 131 | 6.0 | 11.0 | 0.00 | 0.00 | 0.00 | 62 | 1017.5 |
| 20260506160413 | 54 | 126 | 5.0 | 11.0 | 0.00 | 0.00 | 0.00 | 62 | 1017.5 |
| 20260506155913 | 53 | 132 | 8.0 | 13.0 | 0.00 | 0.00 | 0.00 | 64 | 1017.6 |
| 20260506155414 | 54 | 124 | 9.0 | 13.0 | 0.00 | 0.00 | 0.00 | 64 | 1017.5 |
| 20260506154912 | 54 | 140 | 6.0 | 10.0 | 0.00 | 0.00 | 0.00 | 66 | 1017.5 |
| 20260506154414 | 54 | 132 | 7.0 | 12.0 | 0.00 | 0.00 | 0.00 | 65 | 1017.5 |
| 20260506153913 | 55 | 143 | 5.0 | 9.0 | 0.00 | 0.00 | 0.00 | 65 | 1017.2 |
| 20260506153413 | 55 | 122 | 5.0 | 9.0 | 0.00 | 0.00 | 0.00 | 65 | 1017.1 |
| 20260506152913 | 53 | 127 | 3.0 | 9.0 | 0.00 | 0.00 | 0.00 | 65 | 1017.1 |
| 20260506152412 | 52 | 118 | 4.0 | 7.0 | 0.00 | 0.00 | 0.00 | 69 | 1017.2 |
| 20260506151914 | 52 | 66 | 3.0 | 7.0 | 0.00 | 0.00 | 0.00 | 70 | 1017.5 |
| 20260506151413 | 51 | 106 | 2.0 | 10.0 | 0.00 | 0.00 | 0.00 | 70 | 1017.5 |
| 20260506150914 | 51 | 116 | 4.0 | 9.0 | 0.00 | 0.00 | 0.00 | 72 | 1017.5 |
| 20260506150411 | 51 | 100 | 2.0 | 9.0 | 0.00 | 0.00 | 0.00 | 72 | 1017.3 |
| 20260506145912 | 51 | 109 | 2.0 | 8.0 | 0.00 | 0.00 | 0.00 | 73 | 1017.3 |
| 20260506145414 | 51 | 100 | 4.0 | 10.0 | 0.00 | 0.00 | 0.00 | 72 | 1017.5 |
| 20260506144914 | 51 | 84 | 2.0 | 9.0 | 0.00 | 0.00 | 0.00 | 73 | 1017.7 |
| 20260506144415 | 50 | 103 | 2.0 | 9.0 | 0.00 | 0.00 | 0.00 | 75 | 1017.7 |
| 20260506143413 | 51 | 117 | 3.0 | 7.0 | 0.00 | 0.00 | 0.00 | 76 | 1017.5 |
| 20260506142913 | 51 | 121 | 3.0 | 9.0 | 0.00 | 0.00 | 0.00 | 76 | 1017.5 |
| 20260506142414 | 51 | 82 | 3.0 | 9.0 | 0.00 | 0.00 | 0.00 | 73 | 1017.3 |
| 20260506141913 | 51 | 89 | 3.0 | 9.0 | 0.00 | 0.00 | 0.00 | 76 | 1017.6 |
| 20260506141413 | 52 | 62 | 3.0 | 7.0 | 0.00 | 0.00 | 0.00 | 75 | 1017.3 |
| 20260506140914 | 51 | 107 | 3.0 | 5.0 | 0.00 | 0.00 | 0.00 | 75 | 1017.0 |
| 20260506140414 | 51 | 65 | 2.0 | 6.0 | 0.00 | 0.00 | 0.00 | 78 | 1017.1 |
| 20260506135913 | 51 | 40 | 3.0 | 6.0 | 0.00 | 0.00 | 0.00 | 77 | 1017.2 |
| 20260506135414 | 50 | 98 | 3.0 | 6.0 | 0.00 | 0.00 | 0.00 | 78 | 1017.1 |
| 20260506134914 | 50 | 114 | 3.0 | 6.0 | 0.00 | 0.00 | 0.00 | 78 | 1017.2 |
| 20260506134414 | 50 | 66 | 2.0 | 5.0 | 0.00 | 0.00 | 0.00 | 79 | 1017.2 |
| 20260506133913 | 49 | 105 | 4.0 | 8.0 | 0.00 | 0.00 | 0.00 | 80 | 1017.2 |
| 20260506133414 | 50 | 83 | 2.0 | 7.0 | 0.00 | 0.00 | 0.00 | 80 | 1017.0 |
| 20260506132913 | 49 | 77 | 1.0 | 8.0 | 0.00 | 0.00 | 0.00 | 80 | 1016.9 |
| 20260506132413 | 49 | 51 | 3.0 | 5.0 | 0.00 | 0.00 | 0.00 | 81 | 1017.0 |
| 20260506131914 | 48 | 120 | 2.0 | 6.0 | 0.00 | 0.00 | 0.00 | 82 | 1016.9 |
| 20260506131413 | 48 | 113 | 4.0 | 7.0 | 0.00 | 0.00 | 0.00 | 82 | 1016.8 |
| 20260506130913 | 48 | 111 | 6.0 | 7.0 | 0.00 | 0.00 | 0.00 | 83 | 1016.7 |
| 20260506130414 | 48 | 103 | 2.0 | 7.0 | 0.00 | 0.00 | 0.00 | 83 | 1016.8 |
| 20260506125913 | 48 | 48 | 2.0 | 6.0 | 0.00 | 0.00 | 0.00 | 84 | 1016.8 |
| 20260506125413 | 47 | 71 | 3.0 | 7.0 | 0.00 | 0.00 | 0.00 | 84 | 1016.8 |
| 20260506124911 | 47 | 57 | 3.0 | 9.0 | 0.00 | 0.00 | 0.00 | 85 | 1016.8 |
| 20260506124413 | 47 | 63 | 4.0 | 8.0 | 0.00 | 0.00 | 0.00 | 85 | 1016.9 |
| 20260506123913 | 47 | 85 | 2.0 | 9.0 | 0.00 | 0.00 | 0.00 | 86 | 1016.8 |
| 20260506123411 | 47 | 32 | 2.0 | 7.0 | 0.00 | 0.00 | 0.00 | 86 | 1016.9 |
| 20260506122914 | 47 | 40 | 3.0 | 8.0 | 0.00 | 0.00 | 0.00 | 86 | 1016.9 |
| 20260506122413 | 47 | 32 | 1.0 | 7.0 | 0.00 | 0.00 | 0.00 | 87 | 1016.8 |
| 20260506121913 | 46 | 105 | 4.0 | 8.0 | 0.00 | 0.00 | 0.00 | 87 | 1016.7 |
| 20260506121414 | 46 | 75 | 3.0 | 9.0 | 0.00 | 0.00 | 0.00 | 87 | 1016.6 |
| 20260506120916 | 46 | 58 | 4.0 | 7.0 | 0.00 | 0.00 | 0.00 | 87 | 1016.5 |
| 20260506120415 | 46 | 83 | 3.0 | 6.0 | 0.00 | 0.00 | 0.00 | 87 | 1016.5 |
| 20260506115914 | 46 | 0 | 0.0 | 4.0 | 0.00 | 0.00 | 0.00 | 88 | 1016.5 |
| 20260506115414 | 46 | 39 | 0.0 | 5.0 | 0.00 | 0.00 | 0.00 | 88 | 1016.7 |
| 20260506114913 | 46 | 129 | 2.0 | 4.0 | 0.00 | 0.00 | 0.00 | 88 | 1016.7 |
| 20260506114414 | 46 | 69 | 2.0 | 5.0 | 0.00 | 0.00 | 0.00 | 87 | 1016.4 |
| 20260506113913 | 46 | 25 | 2.0 | 6.0 | 0.00 | 0.00 | 0.00 | 87 | 1016.4 |
| 20260506113411 | 46 | 24 | 3.0 | 5.0 | 0.00 | 0.00 | 0.00 | 87 | 1016.4 |
| 20260506112911 | 46 | 54 | 1.0 | 4.0 | 0.00 | 0.00 | 0.00 | 88 | 1015.8 |
| 20260506112413 | 46 | 37 | 3.0 | 5.0 | 0.00 | 0.00 | 0.00 | 87 | 1015.7 |
| 20260506111914 | 46 | 68 | 1.0 | 6.0 | 0.00 | 0.00 | 0.00 | 88 | 1015.6 |
| 20260506111414 | 46 | 301 | 1.0 | 4.0 | 0.00 | 0.00 | 0.00 | 89 | 1015.7 |
| 20260506110914 | 46 | 13 | 1.0 | 5.0 | 0.00 | 0.00 | 0.00 | 89 | 1015.6 |
| 20260506110413 | 46 | 33 | 4.0 | 5.0 | 0.00 | 0.00 | 0.00 | 89 | 1015.7 |
| 20260506105915 | 46 | 63 | 2.0 | 5.0 | 0.00 | 0.00 | 0.00 | 89 | 1015.6 |
| 20260506105411 | 46 | 47 | 3.0 | 4.0 | 0.00 | 0.00 | 0.00 | 89 | 1015.5 |
| 20260506104914 | 46 | 110 | 0.0 | 4.0 | 0.00 | 0.00 | 0.00 | 89 | 1015.3 |
| 20260506104413 | 46 | 39 | 3.0 | 4.0 | 0.00 | 0.00 | 0.00 | 89 | 1015.1 |
| 20260506103913 | 46 | 43 | 2.0 | 4.0 | 0.00 | 0.00 | 0.00 | 89 | 1015.1 |
| 20260506103413 | 46 | 51 | 2.0 | 4.0 | 0.00 | 0.00 | 0.00 | 89 | 1015.0 |
| 20260506102912 | 46 | 53 | 2.0 | 4.0 | 0.00 | 0.00 | 0.00 | 89 | 1014.9 |
| 20260506102414 | 46 | 45 | 0.0 | 3.0 | 0.00 | 0.00 | 0.00 | 89 | 1014.6 |
| 20260506101911 | 46 | 31 | 2.0 | 5.0 | 0.00 | 0.00 | 0.00 | 89 | 1014.6 |
| 20260506101411 | 46 | 15 | 2.0 | 3.0 | 0.00 | 0.00 | 0.00 | 89 | 1014.5 |
| 20260506100913 | 46 | 96 | 0.0 | 4.0 | 0.00 | 0.00 | 0.00 | 87 | 1014.3 |
| 20260506100413 | 46 | 45 | 2.0 | 4.0 | 0.00 | 0.00 | 0.00 | 88 | 1014.2 |
| 20260506095912 | 46 | 58 | 1.0 | 4.0 | 0.00 | 0.00 | 0.00 | 87 | 1014.1 |
| 20260506095414 | 46 | 54 | 1.0 | 2.0 | 0.00 | 0.00 | 0.00 | 87 | 1014.0 |
| 20260506094912 | 46 | 140 | 2.0 | 4.0 | 0.00 | 0.00 | 0.00 | 87 | 1013.7 |
| 20260506094411 | 46 | 126 | 1.0 | 2.0 | 0.00 | 0.00 | 0.00 | 87 | 1013.7 |
| 20260506093911 | 46 | 128 | 1.0 | 4.0 | 0.00 | 0.00 | 0.00 | 86 | 1013.6 |
| 20260506093413 | 46 | 107 | 3.0 | 4.0 | 0.00 | 0.00 | 0.00 | 87 | 1013.6 |
| 20260506092911 | 46 | 119 | 0.0 | 5.0 | 0.00 | 0.00 | 0.00 | 87 | 1013.7 |
| 20260506092413 | 46 | 120 | 3.0 | 5.0 | 0.00 | 0.00 | 0.00 | 87 | 1013.6 |
| 20260506091914 | 46 | 128 | 3.0 | 4.0 | 0.00 | 0.00 | 0.00 | 87 | 1014.0 |
| 20260506091413 | 46 | 71 | 3.0 | 4.0 | 0.00 | 0.00 | 0.00 | 86 | 1014.2 |
| 20260506090914 | 46 | 44 | 2.0 | 4.0 | 0.00 | 0.00 | 0.00 | 86 | 1014.3 |
| 20260506090412 | 46 | 92 | 1.0 | 4.0 | 0.00 | 0.00 | 0.00 | 87 | 1014.1 |
| 20260506085913 | 46 | 119 | 2.0 | 3.0 | 0.00 | 0.00 | 0.00 | 86 | 1014.1 |
| 20260506085419 | 46 | 0 | 0.0 | 4.0 | 0.00 | 0.00 | 0.00 | 86 | 1014.0 |
| 20260506084912 | 46 | 53 | 2.0 | 4.0 | 0.00 | 0.00 | 0.00 | 85 | 1014.1 |
| 20260506084411 | 46 | 123 | 2.0 | 7.0 | 0.00 | 0.00 | 0.00 | 85 | 1014.1 |
| 20260506083913 | 46 | 105 | 3.0 | 6.0 | 0.00 | 0.00 | 0.00 | 84 | 1013.9 |
| 20260506083411 | 46 | 147 | 2.0 | 4.0 | 0.00 | 0.00 | 0.00 | 85 | 1013.7 |
| 20260506082912 | 46 | 131 | 3.0 | 6.0 | 0.00 | 0.00 | 0.00 | 86 | 1013.3 |
| 20260506082411 | 46 | 109 | 5.0 | 9.0 | 0.00 | 0.00 | 0.00 | 86 | 1013.1 |
| 20260506081913 | 46 | 112 | 3.0 | 5.0 | 0.00 | 0.00 | 0.00 | 86 | 1012.9 |
| 20260506081411 | 46 | 129 | 4.0 | 6.0 | 0.00 | 0.00 | 0.00 | 87 | 1012.8 |
| 20260506080911 | 46 | 146 | 4.0 | 5.0 | 0.00 | 0.00 | 0.00 | 87 | 1012.8 |
| 20260506080413 | 46 | 132 | 2.0 | 4.0 | 0.00 | 0.00 | 0.00 | 88 | 1013.0 |
| 20260506073413 | 46 | 108 | 2.0 | 4.0 | 0.00 | 0.00 | 0.00 | 91 | 1012.3 |
| 20260506072912 | 46 | 113 | 1.0 | 5.0 | 0.00 | 0.00 | 0.00 | 92 | 1012.6 |
| 20260506072411 | 46 | 119 | 3.0 | 5.0 | 0.00 | 0.00 | 0.00 | 91 | 1013.1 |
| 20260506071914 | 46 | 84 | 2.0 | 4.0 | 0.00 | 0.00 | 0.00 | 92 | 1013.2 |
| 20260506071411 | 46 | 136 | 1.0 | 3.0 | 0.00 | 0.00 | 0.00 | 91 | 1013.6 |
| 20260506070912 | 46 | 97 | 1.0 | 4.0 | 0.00 | 0.00 | 0.00 | 91 | 1013.3 |
| 20260506070414 | 46 | 62 | 1.0 | 4.0 | 0.00 | 0.00 | 0.00 | 91 | 1013.4 |
| 20260506062411 | 46 | 75 | 2.0 | 5.0 | 0.00 | 0.00 | 0.00 | 95 | 1013.4 |
| 20260506061912 | 46 | 78 | 3.0 | 4.0 | 0.00 | 0.00 | 0.00 | 95 | 1013.4 |
| 20260506061413 | 46 | 45 | 2.0 | 4.0 | 0.00 | 0.00 | 0.00 | 96 | 1013.6 |
| 20260506060911 | 46 | 63 | 2.0 | 5.0 | 0.00 | 0.00 | 0.00 | 96 | 1013.6 |
| 20260506060411 | 46 | 22 | 3.0 | 5.0 | 0.00 | 0.00 | 0.00 | 96 | 1013.8 |
| 20260506051411 | 46 | 120 | 1.0 | 3.0 | 0.00 | 0.00 | 0.00 | 94 | 1013.0 |
| 20260506050913 | 46 | 75 | 2.0 | 5.0 | 0.00 | 0.00 | 0.00 | 94 | 1013.1 |
| 20260506050411 | 46 | 103 | 3.0 | 4.0 | 0.00 | 0.00 | 0.00 | 94 | 1012.9 |
| 20260506044911 | 46 | 131 | 1.0 | 3.0 | 0.00 | 0.00 | 0.00 | 94 | 1012.6 |
| 20260506044411 | 46 | 111 | 1.0 | 3.0 | 0.00 | 0.00 | 0.00 | 95 | 1012.6 |
| 20260506043911 | 46 | 113 | 0.0 | 4.0 | 0.00 | 0.00 | 0.00 | 94 | 1012.6 |
| 20260506043413 | 46 | 55 | 2.0 | 3.0 | 0.00 | 0.00 | 0.00 | 95 | 1012.5 |
| 20260506042911 | 46 | 61 | 0.0 | 1.0 | 0.00 | 0.00 | 0.00 | 95 | 1012.6 |
| 20260506041947 | 46 | 78 | 3.0 | 7.0 | 0.00 | 0.00 | 0.00 | 94 | 1012.5 |
| 20260506041411 | 46 | 78 | 3.0 | 5.0 | 0.00 | 0.00 | 0.00 | 94 | 1012.4 |
| 20260506040913 | 46 | 69 | 1.0 | 6.0 | 0.00 | 0.00 | 0.00 | 94 | 1012.4 |
| 20260506040413 | 46 | 136 | 4.0 | 8.0 | 0.00 | 0.00 | 0.00 | 93 | 1012.3 |
| 20260506035911 | 46 | 91 | 4.0 | 7.0 | 0.00 | 0.00 | 0.00 | 93 | 1012.3 |
| 20260506035412 | 46 | 137 | 2.0 | 4.0 | 0.00 | 0.00 | 0.00 | 94 | 1012.3 |
| 20260506034911 | 46 | 39 | 2.0 | 3.0 | 0.00 | 0.00 | 0.00 | 94 | 1012.4 |
| 20260506034412 | 46 | 134 | 2.0 | 5.0 | 0.00 | 0.00 | 0.00 | 94 | 1012.4 |
| 20260506033913 | 46 | 71 | 3.0 | 4.0 | 0.00 | 0.00 | 0.00 | 94 | 1012.3 |
| 20260506033411 | 46 | 130 | 2.0 | 9.0 | 0.00 | 0.00 | 0.00 | 94 | 1012.2 |
| 20260506032911 | 46 | 122 | 2.0 | 8.0 | 0.00 | 0.00 | 0.00 | 95 | 1012.1 |
| 20260506032411 | 46 | 113 | 2.0 | 8.0 | 0.00 | 0.00 | 0.00 | 95 | 1012.0 |
| 20260506031911 | 46 | 58 | 4.0 | 6.0 | 0.00 | 0.00 | 0.00 | 96 | 1011.8 |
| 20260506031414 | 46 | 125 | 2.0 | 3.0 | 0.00 | 0.00 | 0.00 | 97 | 1011.8 |
| 20260506030911 | 46 | 83 | 1.0 | 5.0 | 0.00 | 0.00 | 0.00 | 96 | 1011.7 |
| 20260506030411 | 46 | 86 | 1.0 | 5.0 | 0.00 | 0.00 | 0.00 | 96 | 1011.6 |
| 20260506025911 | 46 | 60 | 3.0 | 6.0 | 0.00 | 0.00 | 0.00 | 96 | 1011.5 |
| 20260506025411 | 46 | 53 | 3.0 | 6.0 | 0.00 | 0.00 | 0.00 | 95 | 1011.5 |
| 20260506024911 | 46 | 82 | 3.0 | 6.0 | 0.00 | 0.00 | 0.00 | 95 | 1011.3 |
| 20260506024411 | 47 | 116 | 3.0 | 6.0 | 0.00 | 0.00 | 0.00 | 94 | 1011.2 |
| 20260506023911 | 47 | 112 | 2.0 | 6.0 | 0.00 | 0.00 | 0.00 | 93 | 1011.2 |
| 20260506023411 | 47 | 106 | 3.0 | 9.0 | 0.00 | 0.00 | 0.00 | 93 | 1011.5 |
| 20260506022911 | 47 | 131 | 2.0 | 8.0 | 0.00 | 0.00 | 0.00 | 91 | 1011.6 |
| 20260506022412 | 47 | 104 | 4.0 | 8.0 | 0.00 | 0.00 | 0.00 | 91 | 1011.7 |
| 20260506021912 | 47 | 133 | 4.0 | 11.0 | 0.00 | 0.00 | 0.00 | 90 | 1011.7 |
| 20260506021411 | 47 | 102 | 5.0 | 10.0 | 0.00 | 0.00 | 0.00 | 91 | 1011.0 |
| 20260506020918 | 47 | 80 | 4.0 | 8.0 | 0.00 | 0.00 | 0.00 | 91 | 1010.7 |
| 20260506020413 | 47 | 95 | 2.0 | 8.0 | 0.00 | 0.00 | 0.00 | 92 | 1010.7 |
| 20260506015912 | 47 | 124 | 3.0 | 8.0 | 0.00 | 0.00 | 0.00 | 91 | 1010.8 |
| 20260506015412 | 47 | 114 | 3.0 | 7.0 | 0.00 | 0.00 | 0.00 | 91 | 1010.7 |
| 20260506014914 | 47 | 120 | 3.0 | 6.0 | 0.00 | 0.00 | 0.00 | 92 | 1010.6 |
| 20260506014411 | 47 | 112 | 3.0 | 9.0 | 0.00 | 0.00 | 0.00 | 92 | 1010.5 |
| 20260506013911 | 47 | 79 | 3.0 | 8.0 | 0.00 | 0.00 | 0.00 | 93 | 1010.2 |
| 20260506013411 | 47 | 59 | 3.0 | 8.0 | 0.00 | 0.00 | 0.00 | 93 | 1010.3 |
| 20260506012911 | 47 | 109 | 4.0 | 10.0 | 0.00 | 0.00 | 0.00 | 92 | 1010.0 |
| 20260506012411 | 47 | 81 | 4.0 | 10.0 | 0.00 | 0.00 | 0.00 | 93 | 1010.1 |
| 20260506011912 | 47 | 82 | 4.0 | 15.0 | 0.00 | 0.00 | 0.00 | 93 | 1010.3 |
| 20260506011412 | 47 | 109 | 6.0 | 13.0 | 0.00 | 0.00 | 0.00 | 92 | 1010.3 |
| 20260506010912 | 47 | 113 | 3.0 | 9.0 | 0.00 | 0.00 | 0.00 | 92 | 1010.1 |
| 20260506010414 | 47 | 84 | 4.0 | 14.0 | 0.00 | 0.00 | 0.00 | 92 | 1010.2 |
| 20260506005911 | 47 | 115 | 5.0 | 8.0 | 0.00 | 0.00 | 0.00 | 92 | 1010.0 |
| 20260506005413 | 47 | 100 | 4.0 | 9.0 | 0.00 | 0.00 | 0.00 | 93 | 1010.0 |
| 20260506004911 | 47 | 79 | 2.0 | 8.0 | 0.00 | 0.00 | 0.00 | 93 | 1010.3 |
| 20260506004412 | 47 | 108 | 2.0 | 7.0 | 0.00 | 0.00 | 0.00 | 95 | 1010.2 |
| 20260506003912 | 47 | 78 | 5.0 | 8.0 | 0.00 | 0.00 | 0.00 | 95 | 1010.0 |
| 20260506003416 | 47 | 91 | 5.0 | 12.0 | 0.00 | 0.00 | 0.00 | 94 | 1009.7 |
| 20260506002913 | 47 | 105 | 6.0 | 12.0 | 0.00 | 0.00 | 0.00 | 94 | 1009.7 |
| 20260506002411 | 47 | 78 | 3.0 | 12.0 | 0.00 | 0.00 | 0.00 | 95 | 1009.7 |
| 20260506001911 | 48 | 77 | 4.0 | 9.0 | 0.00 | 0.00 | 0.00 | 96 | 1009.6 |